User: anonymous   Login
Location: Caltech
(34.1382°N, 118.1253°W)
Time: 18:18:18
(UTC-07:00)
Language:

IDEFIX/ARIANE 42P - Orbit

View from above orbital plane
View from above orbital plane
View from above satellite
View from above satellite

Ground track
Ground track

The orbit data is extracted from the following two-line orbital elements,

1 27422U 02021B   17293.82172694 -.00000032  00000-0  35945-5 0  9990
2 27422  98.2374 287.1976 0011418 220.2280 139.8059 14.29257592804624
Epoch (UTC): 20 October 2017 19:43:17
Eccentricity: 0.0011418
inclination: 98.2374°
perigee height: 786 km
apogee height: 802 km
right ascension of ascending node: 287.1976°
argument of perigee: 220.2280°
revolutions per day: 14.29257592
mean anomaly at epoch: 139.8059°
orbit number at epoch: 80462

The dashed part of the orbit path shows where the satellite is in the earth's shadow,  

DLR